Regional Weather Roundup
Issued by NWS New Orleans/Baton Rouge, LA

Home | Current Version | Previous Version | Text Only | Print | Product List | Glossary On
Versions: 1 2 3 4 5 6 7 8 9 10 11 12 13 14 15 16 17 18 19 20 21 22 23 24 25 26 27 28 29 30 31 32 33 34 35 36 37 38 39 40 41 42 43 44 45 46 47 48 49 50
571
ASUS44 KLIX 011705
RWRLIX
NEW ORLEANS REGIONAL WEATHER ROUNDUP
NATIONAL WEATHER SERVICE NEW ORLEANS LA
1200 PM CDT MON SEP 01 2014

NOTE: "FAIR" INDICATES FEW OR NO CLOUDS BELOW 12,000 FEET WITH NO
      SIGNIFICANT WEATHER AND/OR OBSTRUCTIONS TO VISIBILITY.
      SKY/WX - SKY CONDITION AND SIGNIFICANT WEATHER.
      TMP - AIR TEMPERATURE.     DP    - DEWPOINT TEMPERATURE.
      RH  - RELATIVE HUMIDITY.   PRES  - PRESSURE.
      HI  - HEAT INDEX.          WCI   - WIND CHILL INDEX.

*  THESE STATIONS ARE NOT NWS OR FAA STATIONS AND ARE NOT UNDER
   NWS QUALITY CONTROL.

LAZ038-040-048-061>063-065>067-069-011800-
SOUTHEAST LOUISIANA

CITY           SKY/WX    TMP DP  RH WIND       PRES   REMARKS
N.O. AUDUBON     N/A     84  78  82 MISG        N/A  HX  96
N.O. INTL ARPT PTSUNNY   86  77  74 S10       30.05F THUNDER HX  97
N.O. LAKEFRONT PTSUNNY   85  74  69 S14       30.07S
N.O. DOWNTOWN* PTSUNNY   81  73  78 SE6       30.07S
SLIDELL        PTSUNNY   89  74  60 SE13      30.06F HX  98
BATON ROUGE    PTSUNNY   89  74  60 SE10      30.03F HX  98
BOOTHVILLE     MOSUNNY   83  78  85 SE7       30.08S
BELLE CHASSE   PTSUNNY   85  75  72 SE10      30.06R
BOGALUSA*        N/A     90  75  60 S9        30.08F HX 101
GALLIANO*      NOT AVBL
NEW ROADS*       N/A     89  75  65 SE8       30.03F HX  99
GONZALES*        N/A     84  76  75 SE7       30.05S
HAMMOND*       MOSUNNY   90  73  58 SE10G16   30.07F HX  98
HOUMA*         PTSUNNY   81  79  94 SE7       30.05F
PORT FOURCHON* SUNNY     86  77  74 SE13      30.08S HX  97

$$

MSZ070-080>082-011800-
SOUTHERN MISSISSIPPI

CITY           SKY/WX    TMP DP  RH WIND       PRES   REMARKS
MCCOMB         PTSUNNY   87  74  64 S13G18    30.07F HX  95
GULFPORT       MOSUNNY   89  76  65 SE15G23   30.08S HX 100
BILOXI         MOSUNNY   90  77  64 SE9       30.09S HX 103
PASCAGOULA     MOSUNNY   91  75  59 SE12      30.09S HX 101

$$

COASTAL OBSERVATIONS
LAKE AND NEARSHORE STATIONS

STATION/POSITION TIME  TEMP    WIND        PRES    WAVE
                       AIR SEA DIR/SP/G            HT/PER
                 (UTC) (F)     (DEG/KT/KT) (MB)    (FT/S)
PASCAGOULA       1700   87     130/  9/ 16 1018.7
WAVELAND YACHT   1700   85     150/ 11/ 13 1018.0
GRAND ISLE       1700   85 84  140/  7/ 12 1018.7
SOUTHWEST PASS   1700   88 90  150/ 10/ 16 1018.7
NEW CANAL        1700   83 82  180/  9/ 16 1018.6
SHELL BEACH      1700   85 80  180/ 11/ 14 1018.2

OFFSHORE STATIONS

STATION/POSITION TIME  TEMP    WIND        PRES    WAVE
                       AIR SEA DIR/SP/G            HT/PER
                 (UTC) (F)     (DEG/KT/KT) (MB)    (FT/S)
64 S DAUPHIN ISL 1700   85 86  130/ 14/ 16 1018.9

$$




USA.gov is the U.S. government's official web portal to all federal, state and local government web resources and services.